Regional Weather Roundup
Issued by NWS

Home | Current Version | Previous Version | Text Only | Print | Product List | Glossary Off
Versions: 1 2 3 4 5 6 7 8 9 10 11 12 13 14 15 16 17 18 19 20 21 22 23 24 25 26 27 28 29 30 31 32 33 34 35 36 37 38 39 40 41 42 43 44 45 46 47 48 49 50

000
ASUS45 KBOI 011410
RWRID

IDAHO REGIONAL WEATHER ROUNDUP
NATIONAL WEATHER SERVICE BOISE ID
800 AM MDT TUE SEP 01 2015

NOTE: "FAIR" INDICATES FEW OR NO CLOUDS BELOW 12000 FEET
WITH NO SIGNIFICANT WEATHER AND/OR OBSTRUCTIONS TO VISIBILITY

IDZ012-014-011500-
SOUTHWEST IDAHO


CITY           SKY/WX    TMP DP  RH WIND       PRES   REMARKS
BOISE          CLEAR     60  37  42 S3        29.91R
CALDWELL       CLEAR     48  36  61 E3        29.92S
MOUNTAIN HOME  CLEAR     55  37  50 E8        29.92R
$$

IDZ016-017-011500-
SOUTHCENTRAL IDAHO


CITY           SKY/WX    TMP DP  RH WIND       PRES   REMARKS
BURLEY         SUNNY     50  40  68 S5        29.99R
JEROME         CLEAR     55  36  48 E6        29.98R
TWIN FALLS     CLEAR     58  32  37 S10       29.99R
$$

IDZ019>023-011500-
SOUTHEAST IDAHO


CITY           SKY/WX    TMP DP  RH WIND       PRES   REMARKS
IDAHO FALLS    SUNNY     47  39  74 N3        30.02R
POCATELLO      SUNNY     50  38  63 N5        30.01R
REXBURG        SUNNY     43  34  70 E6        30.03S
$$

IDZ006-010-011-018-031-032-011500-
CENTRAL IDAHO MOUNTAINS


CITY           SKY/WX    TMP DP  RH WIND       PRES   REMARKS
MCCALL         PTCLDY    42  35  76 NE3       30.01S
HAILEY         CLEAR     48  34  57 NW16      30.07R
STANLEY          N/A     32  27  81 CALM      30.14R
SALMON         SUNNY     45  39  81 CALM      30.00S
CHALLIS        CLEAR     50  33  52 CALM      30.05R
$$

IDZ002-004-006-007-026-011500-
NORTHERN IDAHO


CITY           SKY/WX    TMP DP  RH WIND       PRES   REMARKS
LEWISTON       PTCLDY    54  43  66 CALM      29.92R
LOWELL           N/A     52  49  89 CALM      29.97S
COEUR D`ALENE  PTCLDY    54  45  71 S12       29.92R
MULLAN PASS    MOCLDY    44  40  85 VRB5      30.00R
$$



USA.gov is the U.S. government's official web portal to all federal, state and local government web resources and services.